STARLINK-4338, 53055

Orbit data source: Space-Track

STARLINK-4338, 53055 is a payload satellite owned by SpaceX/Seattle (US) in SSO that was launched on Mon, 11 Jul 2022 UTC via an FALCON 9 launch vehicle from the Air Force Western Test Range (AFWTR). Payload-class satellites include a variety of spacecraft equipped with specific instruments for various scientific and technological missions. These include communications satellites like Starlink; space stations such as the ISS; scientific satellites like the Hubble; Earth observation satellites from companies like Planet Labs, Umbra, and HawkEye 360; GPS; miniature CubeSats for education and research; and military/defense satellites.

Loading next visibility...
Identifier
53055, 2022-077N
Orbit
SSO
Country
Flag of USUS
Related business
Manufacturer
SpaceX/Seattle
Mission
Operational Commercial Communications
Bus & Motor
STARLINK, Unknown motor
Mass
297 kg wet, ~275 kg dry
Launch date (UTC)
2022-07-11 (3 years ago)
Launch vehicle
FALCON 9
Launch site
Air Force Western Test Range (AFWTR)
Object type
Payload
Rocket body
Debris
Shape & HBR
Box + 1 Pan, 10.1 m
Radar Cross Section
13.562 m², Large (>1 m²)

Expand to show TLE details & history
Last TLE update: 16 hours ago

TLE from 16 hours ago
0 STARLINK-4338
1 53055U 22077N   25348.93366968  .00000688  00000-0  51921-4 0  9992
2 53055  97.6007 167.6333 0001167  92.3789 267.7571 15.05648711188225
Epoch: 2025-12-14T22:24Z
TLE epoch observation values (Epoch: 2025-12-14T22:24:29.060Z)
Latitude
-0.00005°
Longitude
107.67275°
Altitude
552.612 km
Speed
7.585 km/s
True Right ascension
11h 10m 31s
True Declination
0° 00' 00"
Sunlit
Object was in daylight at epoch
Visualization orbit readout
Latitude
Unknown
Longitude
Unknown
Altitude
Unknown
Speed
Unknown
Apparent Right ascension
Unknown
Apparent Declination
Unknown
Sunlit
N/A
Visualization observer readout
Local Sidereal Time
13:19:56
Azimuth
Unknown
Elevation
Unknown
Doppler factor
Unknown
Orbital elements
Apogee altitude
547.317 km
Perigee altitude
545.7 km
Semi-major axis
6,924.645 km
Eccentricity
0.00012
Inclination
97.6007°
RAAN
167.6333°
Arg. of periapsis
92.3789°
True anomaly
267.74374°
Mean anomaly
267.7571°
Eccentric anomaly
267.75042°
Mean motion
3.76658 °/min
Orbital period
95.58 mins
BSTAR
0.000051921
Loading maneuver chart data...
Computing Atmospheric mass density...
Loading historical data...
Loading historical data...
Loading historical data...
Loading historical data...
Loading historical data...
Loading historical data...
Loading historical data...

Documentation

Showing up to 5 results
|